Location: B?dimalle
(17.1788°N, 80.5377°E)
Time: 11:26:15
(UTC+00:00)

Courier 1B Rocket - Pass Details

Date: 12 December 2025
Orbit: 920 x 1201 km, 28.2° (Epoch: 25 January)

Event Time Altitude Azimuth Distance (km) Brightness Sun altitude
Exits shadow 21:25:44 12° 86° (E) 2,573 7.6 -48.9°
Drops below altitude 10° 21:26:06 10° 87° (E) 2,695 7.8 -48.8°
Sets 21:28:47 0° 93° (E) 3,610 8.6 -48.2°
